Location: *
(47.6569°N, 7.4256°E)
Time: 15:50:51
(UTC+00:00)

Cosmos 2333 Rocket - Pass Details

Date: 14 December 2019
Orbit: 837 x 864 km, 70.8° (Epoch: 19 January)

Event Time Altitude Azimuth Distance (km) Brightness Sun altitude
Rises 16:40:46 0° 239° (WSW) 3,422 7.5 -10.0°
Reaches altitude 10° 16:43:29 10° 249° (WSW) 2,494 6.3 -10.4°
Maximum altitude 16:48:33 31° 311° (NW) 1,464 3.7 -11.2°
Drops below altitude 10° 16:53:40 10° 13° (NNE) 2,516 4.3 -12.0°
Enters shadow 16:55:27 - 21° (NNE) 3,111 4.8 -12.2°
